When you browse on this site, cookies collect data to enhance your experience and personalize the content and advertising you see.
Visit our Privacy Policy to learn more. By continuing to use the site, you agree to this use of cookies and data.
  • In Czech Republic
  • List of Countries
  • For 7 days
  • Water Temperature
  • Satellite Maps
  • Weather Map
  • Weather Widgets
  • user-avatar
    Login

    Hourly Weather Darwin

    Today, 18 June, Tuesday

    Time Temperature Precipitation Wind Pressure Humidity
    00:00 +25°C° 0 mm 2 mps 761 mmHg 58%
    01:00 +25°C° 0 mm 2 mps 761 mmHg 59%
    02:00 +24°C° 0 mm 2 mps 761 mmHg 61%
    03:00 +24°C° 0 mm 2 mps 760 mmHg 62%
    04:00 +23°C° 0 mm 2 mps 760 mmHg 65%
    05:00 +21°C° 0 mm 3 mps 760 mmHg 67%
    06:00 +20°C° 0 mm 4 mps 760 mmHg 69%
    07:00 +22°C° 0 mm 5 mps 761 mmHg 62%
    08:00 +24°C° 0 mm 6 mps 761 mmHg 54%
    09:00 +27°C° 0 mm 7 mps 761 mmHg 46%
    10:00 +29°C° 0 mm 6 mps 761 mmHg 40%
    11:00 +32°C° 0 mm 6 mps 760 mmHg 34%
    12:00 +34°C° 0 mm 6 mps 760 mmHg 27%
    13:00 +34°C° 0 mm 5 mps 759 mmHg 26%
    14:00 +35°C° 0 mm 5 mps 759 mmHg 25%
    15:00 +35°C° 0 mm 4 mps 758 mmHg 24%
    16:00 +34°C° 0 mm 3 mps 758 mmHg 27%
    17:00 +31°C° 0 mm 3 mps 758 mmHg 30%
    18:00 +29°C° 0 mm 2 mps 758 mmHg 33%
    19:00 +27°C° 0 mm 3 mps 759 mmHg 34%
    20:00 +26°C° 0 mm 3 mps 759 mmHg 34%
    21:00 +25°C° 0 mm 4 mps 760 mmHg 35%
    22:00 +23°C° 0 mm 5 mps 760 mmHg 35%
    23:00 +23°C° 0 mm 6 mps 760 mmHg 34%

    Tomorrow, 19 June, Wednesday

    Time Temperature Precipitation Wind Pressure Humidity
    00:00 +23°C° 0 mm 6 mps 760 mmHg 33%
    01:00 +22°C° 0 mm 6 mps 760 mmHg 34%
    02:00 +21°C° 0 mm 6 mps 760 mmHg 35%
    03:00 +20°C° 0 mm 6 mps 760 mmHg 36%
    04:00 +20°C° 0 mm 7 mps 760 mmHg 36%
    05:00 +18°C° 0 mm 7 mps 761 mmHg 35%
    06:00 +17°C° 0 mm 7 mps 761 mmHg 35%
    07:00 +20°C° 0 mm 7 mps 761 mmHg 33%
    08:00 +21°C° 0 mm 7 mps 761 mmHg 30%
    09:00 +22°C° 0 mm 7 mps 762 mmHg 28%
    10:00 +26°C° 0 mm 6 mps 761 mmHg 25%
    11:00 +28°C° 0 mm 5 mps 760 mmHg 21%
    12:00 +30°C° 0 mm 4 mps 760 mmHg 18%
    13:00 +32°C° 0 mm 4 mps 759 mmHg 17%
    14:00 +31°C° 0 mm 3 mps 758 mmHg 16%
    15:00 +33°C° 0 mm 3 mps 758 mmHg 15%
    16:00 +30°C° 0 mm 2 mps 758 mmHg 20%
    17:00 +27°C° 0 mm 1 mps 758 mmHg 26%
    18:00 +25°C° 0 mm 1 mps 758 mmHg 32%
    19:00 +24°C° 0 mm 2 mps 759 mmHg 30%
    20:00 +23°C° 0 mm 2 mps 759 mmHg 29%
    21:00 +21°C° 0 mm 3 mps 760 mmHg 28%
    22:00 +20°C° 0 mm 4 mps 760 mmHg 28%
    23:00 +20°C° 0 mm 5 mps 760 mmHg 28%

    Day after tomorrow, 20 June, Thursday

    Time Temperature Precipitation Wind Pressure Humidity
    00:00 +19°C° 0 mm 6 mps 760 mmHg 28%
    01:00 +19°C° 0 mm 6 mps 760 mmHg 30%
    02:00 +17°C° 0 mm 6 mps 760 mmHg 31%
    03:00 +16°C° 0 mm 6 mps 760 mmHg 32%
    04:00 +16°C° 0 mm 6 mps 760 mmHg 33%
    05:00 +15°C° 0 mm 6 mps 760 mmHg 33%
    06:00 +15°C° 0 mm 6 mps 761 mmHg 34%
    07:00 +17°C° 0 mm 7 mps 761 mmHg 32%
    08:00 +20°C° 0 mm 7 mps 761 mmHg 29%
    09:00 +21°C° 0 mm 7 mps 762 mmHg 27%
    10:00 +24°C° 0 mm 6 mps 761 mmHg 25%
    11:00 +27°C° 0 mm 5 mps 761 mmHg 23%
    12:00 +30°C° 0 mm 5 mps 760 mmHg 21%
    13:00 +30°C° 0 mm 4 mps 759 mmHg 21%
    14:00 +31°C° 0 mm 3 mps 759 mmHg 21%
    15:00 +32°C° 0 mm 2 mps 758 mmHg 21%
    16:00 +30°C° 0 mm 2 mps 758 mmHg 27%
    17:00 +27°C° 0 mm 2 mps 758 mmHg 32%
    18:00 +25°C° 0 mm 1 mps 758 mmHg 38%
    19:00 +24°C° 0 mm 2 mps 759 mmHg 38%
    20:00 +23°C° 0 mm 2 mps 759 mmHg 38%
    21:00 +21°C° 0 mm 2 mps 760 mmHg 38%
    22:00 +20°C° 0 mm 4 mps 760 mmHg 36%
    23:00 +20°C° 0 mm 5 mps 760 mmHg 35%

    21 June, Friday

    Time Temperature Precipitation Wind Pressure Humidity
    00:00 +19°C° 0 mm 6 mps 760 mmHg 33%
    01:00 +19°C° 0 mm 6 mps 760 mmHg 35%
    02:00 +17°C° 0 mm 6 mps 760 mmHg 38%
    03:00 +17°C° 0 mm 6 mps 760 mmHg 40%
    04:00 +16°C° 0 mm 6 mps 760 mmHg 43%
    05:00 +15°C° 0 mm 6 mps 760 mmHg 45%
    06:00 +15°C° 0 mm 6 mps 760 mmHg 48%
    07:00 +17°C° 0 mm 6 mps 761 mmHg 46%
    08:00 +20°C° 0 mm 6 mps 761 mmHg 45%
    09:00 +22°C° 0 mm 7 mps 762 mmHg 44%
    10:00 +24°C° 0 mm 6 mps 761 mmHg 40%
    11:00 +27°C° 0 mm 5 mps 761 mmHg 36%
    12:00 +30°C° 0 mm 4 mps 760 mmHg 32%
    13:00 +31°C° 0 mm 3 mps 759 mmHg 32%
    14:00 +33°C° 0 mm 3 mps 759 mmHg 31%
    15:00 +34°C° 0 mm 2 mps 758 mmHg 30%
    16:00 +30°C° 0 mm 2 mps 758 mmHg 37%
    17:00 +28°C° 0 mm 1 mps 758 mmHg 43%
    18:00 +26°C° 0 mm 1 mps 758 mmHg 50%
    19:00 +25°C° 0 mm 2 mps 759 mmHg 50%
    20:00 +24°C° 0 mm 2 mps 759 mmHg 51%
    21:00 +23°C° 0 mm 2 mps 760 mmHg 51%
    22:00 +21°C° 0 mm 4 mps 760 mmHg 49%
    23:00 +21°C° 0 mm 5 mps 760 mmHg 46%

    22 June, Saturday

    Time Temperature Precipitation Wind Pressure Humidity
    00:00 +21°C° 0 mm 6 mps 760 mmHg 43%
    01:00 +20°C° 0 mm 7 mps 760 mmHg 46%
    02:00 +18°C° 0 mm 7 mps 760 mmHg 49%
    03:00 +18°C° 0 mm 7 mps 760 mmHg 52%
    04:00 +17°C° 0 mm 7 mps 760 mmHg 54%
    05:00 +17°C° 0 mm 7 mps 760 mmHg 56%
    06:00 +16°C° 0 mm 7 mps 760 mmHg 59%
    07:00 +18°C° 0 mm 7 mps 761 mmHg 56%
    08:00 +20°C° 0 mm 7 mps 761 mmHg 54%
    09:00 +22°C° 0 mm 7 mps 761 mmHg 52%
    10:00 +24°C° 0 mm 7 mps 761 mmHg 46%
    11:00 +27°C° 0 mm 6 mps 760 mmHg 40%
    12:00 +29°C° 0 mm 5 mps 760 mmHg 34%
    13:00 +32°C° 0 mm 4 mps 759 mmHg 32%
    14:00 +33°C° 0 mm 3 mps 758 mmHg 30%
    15:00 +34°C° 0 mm 2 mps 758 mmHg 28%
    16:00 +31°C° 0 mm 2 mps 758 mmHg 33%
    17:00 +29°C° 0 mm 2 mps 758 mmHg 38%
    18:00 +27°C° 0 mm 1 mps 759 mmHg 43%
    19:00 +25°C° 0 mm 2 mps 759 mmHg 43%
    20:00 +24°C° 0 mm 2 mps 760 mmHg 43%
    21:00 +23°C° 0 mm 2 mps 760 mmHg 43%
    22:00 +21°C° 0 mm 3 mps 760 mmHg 40%
    23:00 +21°C° 0 mm 5 mps 760 mmHg 38%

    23 June, Sunday

    Time Temperature Precipitation Wind Pressure Humidity
    00:00 +20°C° 0 mm 6 mps 760 mmHg 35%
    01:00 +19°C° 0 mm 6 mps 760 mmHg 38%
    02:00 +19°C° 0 mm 6 mps 760 mmHg 41%
    03:00 +17°C° 0 mm 7 mps 760 mmHg 44%
    04:00 +16°C° 0 mm 7 mps 761 mmHg 47%
    05:00 +15°C° 0 mm 7 mps 761 mmHg 50%
    06:00 +15°C° 0 mm 7 mps 761 mmHg 54%
    07:00 +16°C° 0 mm 7 mps 762 mmHg 53%
    08:00 +18°C° 0 mm 7 mps 762 mmHg 52%
    09:00 +21°C° 0 mm 7 mps 762 mmHg 51%
    10:00 +23°C° 0 mm 6 mps 762 mmHg 45%
    11:00 +26°C° 0 mm 6 mps 761 mmHg 38%
    12:00 +28°C° 0 mm 5 mps 761 mmHg 32%
    13:00 +29°C° 0 mm 4 mps 760 mmHg 29%
    14:00 +30°C° 0 mm 4 mps 759 mmHg 26%
    15:00 +31°C° 0 mm 3 mps 759 mmHg 23%
    16:00 +29°C° 0 mm 2 mps 759 mmHg 26%
    17:00 +27°C° 0 mm 2 mps 759 mmHg 30%
    18:00 +25°C° 0 mm 1 mps 759 mmHg 33%
    19:00 +24°C° 0 mm 2 mps 759 mmHg 32%
    20:00 +21°C° 0 mm 3 mps 760 mmHg 30%
    21:00 +20°C° 0 mm 3 mps 760 mmHg 28%
    22:00 +19°C° 0 mm 4 mps 760 mmHg 27%
    23:00 +19°C° 0 mm 6 mps 760 mmHg 26%
    Show more